Weather observations for the past three days for
Olympia, Olympia Airport
Imperial (Metric)
Date Time (pdt) Wind (mph) Vis. (mi.) Weather Sky Cond. Temperature (ºF) Relative Humidity Wind Chill (°F) Heat Index (°F) Pressure Precipitation (in)
Air Dwpt 6 hour altimeter (in) sea level (mb) 1 hr 3 hr 6 hr
Max. Min.
20 13:54 N 6 10.00 Fair CLR 86 52 31% 84 30.09 1018.9
20 12:54 N 7 10.00 Fair CLR 82 55 40% 81 30.11 1019.6
20 11:54 NE 6 10.00 Fair CLR 81 55.9 42% 81 30.13 1020.0
20 10:54 Vrbl 3 10.00 Fair CLR 77 57.9 77 52 52% 79 30.15 1020.7
20 09:54 N 6 10.00 Fair CLR 72 57 59% 30.15 1020.9
20 08:54 NE 5 10.00 Fair CLR 68 57 68% 30.16 1021.1
20 07:54 Calm 10.00 Fair CLR 62.1 55.9 80% 30.16 1021.3
20 06:54 Calm 10.00 Fair CLR 57.9 55 90% 30.16 1021.2
20 05:54 SW 3 10.00 Fair CLR 53.1 51.1 93% 30.16 1021.1
20 04:54 Calm 10.00 Fair CLR 55 53.1 66 53.1 93% 30.15 1020.9
20 03:54 Calm 10.00 Fair CLR 55 53.1 93% 30.15 1020.9
20 02:54 Calm 10.00 Fair CLR 57.9 55 90% 30.15 1020.8
20 01:54 Calm 10.00 Fair CLR 57.9 55 90% 30.15 1021.0
20 00:54 Calm 10.00 Fair CLR 61 55.9 84% 30.16 1021.1
19 23:54 Calm 10.00 Fair CLR 63 55.9 78% 30.15 1020.9
19 22:54 Calm 10.00 Fair CLR 64.9 57 88 64.9 76% 30.14 1020.6
19 21:54 Calm 10.00 Fair CLR 72 55.9 57% 30.14 1020.4
19 20:54 N 6 10.00 Fair CLR 77 55.9 48% 79 30.12 1019.8
19 19:54 N 9 10.00 Fair CLR 82 55.9 41% 82 30.12 1019.7
19 18:54 NE 8 10.00 Fair CLR 86 55.9 36% 85 30.11 1019.6
19 17:54 E 9 10.00 Fair CLR 86 55.9 36% 85 30.12 1019.9
19 16:54 NE 7 10.00 Fair CLR 87.1 57 88 68 36% 86 30.13 1020.3
19 15:54 N 6 10.00 Fair CLR 86 54 33% 84 30.15 1020.7
19 14:54 SW 8 10.00 Fair CLR 82.9 51.1 33% 81 30.16 1021.3
19 13:54 Calm 10.00 Fair CLR 81 50 34% 80 30.18 1021.8
19 12:54 S 7 10.00 Fair CLR 77 53.1 43% 78 30.19 1022.2
19 11:54 Calm 10.00 Fair CLR 73 54 51% 30.2 1022.4
19 10:54 E 5 10.00 Fair CLR 68 55.9 70 51.1 65% 30.21 1022.8
19 09:54 S 3 10.00 Mostly Cloudy BKN014 64.9 55.9 73% 30.21 1023.0
19 08:54 S 6 10.00 Overcast OVC009 61 55.9 84% 30.21 1023.0
19 07:54 SW 3 10.00 Overcast OVC008 59 55.9 90% 30.2 1022.7
19 06:54 SW 6 10.00 Mostly Cloudy BKN009 57 55 93% 30.19 1022.3
19 05:54 S 6 10.00 Fair CLR 53.1 51.1 93% 30.17 1021.6
19 04:54 Calm 10.00 Fair CLR 55 52 63 52 90% 30.17 1021.4
19 03:54 Calm 10.00 Fair CLR 55 53.1 93% 30.16 1021.1
19 02:54 S 5 10.00 Fair CLR 55.9 53.1 90% 30.15 1020.8
19 01:54 S 5 10.00 Fair CLR 55.9 53.1 90% 30.14 1020.6
19 00:54 SE 5 10.00 Fair CLR 57.9 53.1 84% 30.14 1020.4
18 23:54 S 3 10.00 Fair CLR 61 54 78% 30.13 1020.2
18 22:54 Calm 10.00 Fair CLR 63 54 82 63 73% 30.12 1019.7
18 21:54 S 6 10.00 Fair CLR 64.9 55 70% 30.1 1019.3
18 20:54 S 10 10.00 Fair CLR 69.1 55.9 63% 30.09 1018.7
18 19:54 S 8 10.00 Fair CLR 75 55.9 52% 78 30.07 1018.1
18 18:54 W 9 10.00 Fair CLR 78.1 55.9 47% 79 30.06 1017.7
18 17:54 W 9 10.00 Fair CLR 81 57.9 45% 81 30.05 1017.4
18 16:54 W 8 10.00 Fair CLR 82 57.9 84 66.9 44% 82 30.05 1017.5
18 15:54 Vrbl 7 10.00 Fair CLR 82.9 57.9 43% 83 30.05 1017.6
18 14:54 Vrbl 5 10.00 Fair CLR 80.1 57 45% 80 30.07 1018.0
18 13:54 SW 9 10.00 Fair CLR 78.1 55.9 47% 79 30.08 1018.4
18 12:54 S 10 10.00 Fair CLR 75 57 54% 78 30.08 1018.6
18 11:54 SW 9 10.00 Fair CLR 71.1 55.9 59% 30.09 1019.0
18 10:54 S 8 10.00 Fair CLR 66.9 55 68 52 66% 30.1 1019.2
18 09:54 S 7 10.00 Fair CLR 64.9 54 68% 30.11 1019.4
18 08:54 S 8 10.00 Partly Cloudy SCT011 61 54 78% 30.12 1019.7
18 07:54 S 3 10.00 Mostly Cloudy BKN009 57.9 53.1 84% 30.11 1019.5
18 06:54 Calm 10.00 A Few Clouds FEW008 55 53.1 93% 30.1 1019.3
18 05:54 Calm 10.00 Fair CLR 53.1 50 89% 30.09 1018.9
18 04:54 SE 3 10.00 Fair CLR 55 51.1 61 54 87% 30.08 1018.6
18 03:54 Calm 10.00 Fair CLR 55 51.1 87% 30.07 1018.1
18 02:54 SW 7 10.00 Fair CLR 57 52 83% 30.07 1018.0
18 01:54 SW 3 10.00 Fair CLR 55.9 52 87% 30.07 1018.1
18 00:54 Calm 10.00 Fair CLR 57 53.1 87% 30.07 1018.2
17 23:54 S 5 10.00 Fair CLR 59 54 83% 30.06 1017.9
17 22:54 S 8 10.00 Fair CLR 61 55 84 61 81% 30.05 1017.5
17 21:54 SW 7 10.00 Fair CLR 64 55.9 75% 30.04 1017.2
17 20:54 S 10 10.00 Fair CLR 66.9 57 71% 30.02 1016.6
17 19:54 S 12 10.00 Fair CLR 73 57.9 59% 30 1015.7
17 18:54 SW 8 10.00 Fair CLR 78.1 59 52% 79 29.99 1015.4
17 17:54 S 9 10.00 Fair CLR 82 59 46% 82 29.99 1015.3
17 16:54 S 8 10.00 Fair CLR 82.9 60.1 84 72 46% 83 29.98 1015.2
17 15:54 SW 8 10.00 Fair CLR 82 60.1 47% 82 29.99 1015.5
17 14:54 S 7 10.00 Fair CLR 82 60.1 47% 82 30 1015.6
Date Time (pdt) Wind (mph) Vis. (mi.) Weather Sky Cond. Air Dwpt Max. Min. Relative Humidity Wind Chill (°F) Heat Index (°F) altimeter (in) sea level (mb) 1 hr 3 hr 6 hr
6 hour
Temperature (ºF) Pressure Precipitation (in)